Private Wetterstation Sandau
Wetterdaten: Donnerstag, 19.04.2012
Datum Zeit Temp. A. Feuchte A. Luftdruck Regen Wind Richtung Richtung Taupunkt Windchill
19.04.2012 00:01 7,4 C 66 % 996,6 hPa 0,0 l/m 2,2 km/h (1 Bft) O 90 1,5 C 7,4 C
19.04.2012 00:06 7,5 C 66 % 996,7 hPa 0,0 l/m 0,0 km/h (0 Bft) O 90 1,6 C 7,5 C
19.04.2012 00:11 7,5 C 66 % 996,6 hPa 0,0 l/m 0,0 km/h (0 Bft) O 90 1,6 C 7,5 C
19.04.2012 00:16 7,6 C 66 % 996,7 hPa 0,0 l/m 4,0 km/h (1 Bft) O-SO 112 1,7 C 7,6 C
19.04.2012 00:21 7,6 C 66 % 996,8 hPa 0,0 l/m 3,6 km/h (1 Bft) O 90 1,7 C 7,6 C
19.04.2012 00:26 7,6 C 66 % 996,6 hPa 0,0 l/m 5,0 km/h (1 Bft) O 90 1,7 C 7,0 C
19.04.2012 00:31 7,6 C 67 % 996,6 hPa 0,0 l/m 2,2 km/h (1 Bft) O-SO 112 1,9 C 7,6 C
19.04.2012 00:36 7,6 C 67 % 996,5 hPa 0,0 l/m 4,7 km/h (1 Bft) O 90 1,9 C 7,1 C
19.04.2012 00:41 7,6 C 67 % 996,8 hPa 0,0 l/m 3,6 km/h (1 Bft) O 90 1,9 C 7,6 C
19.04.2012 00:46 7,6 C 67 % 996,8 hPa 0,0 l/m 4,3 km/h (1 Bft) O-SO 112 1,9 C 7,6 C
19.04.2012 00:51 7,6 C 67 % 996,6 hPa 0,0 l/m 4,0 km/h (1 Bft) O-NO 67 1,9 C 7,6 C
19.04.2012 00:56 7,6 C 67 % 996,6 hPa 0,0 l/m 3,2 km/h (1 Bft) SO 135 1,9 C 7,6 C
19.04.2012 01:01 7,6 C 67 % 996,6 hPa 0,0 l/m 7,2 km/h (2 Bft) O-SO 112 1,9 C 6,4 C
19.04.2012 01:06 7,5 C 66 % 996,5 hPa 0,0 l/m 4,7 km/h (1 Bft) O 90 1,6 C 7,0 C
19.04.2012 01:11 7,5 C 66 % 996,6 hPa 0,0 l/m 5,8 km/h (2 Bft) SO 135 1,6 C 6,7 C
19.04.2012 01:16 7,5 C 66 % 996,6 hPa 0,0 l/m 6,1 km/h (2 Bft) O-SO 112 1,6 C 6,6 C
19.04.2012 01:21 7,4 C 66 % 996,5 hPa 0,0 l/m 3,6 km/h (1 Bft) O 90 1,5 C 7,4 C
19.04.2012 01:26 7,3 C 67 % 996,5 hPa 0,0 l/m 6,1 km/h (2 Bft) O-SO 112 1,6 C 6,3 C
19.04.2012 01:31 7,2 C 67 % 996,5 hPa 0,0 l/m 4,7 km/h (1 Bft) O-SO 112 1,5 C 6,7 C
19.04.2012 01:36 7,1 C 67 % 996,5 hPa 0,0 l/m 4,7 km/h (1 Bft) O 90 1,4 C 6,6 C
19.04.2012 01:41 7,0 C 67 % 996,5 hPa 0,0 l/m 3,2 km/h (1 Bft) O 90 1,3 C 7,0 C
19.04.2012 01:46 6,9 C 67 % 996,5 hPa 0,0 l/m 7,6 km/h (2 Bft) O-SO 112 1,2 C 5,5 C
19.04.2012 01:51 6,9 C 67 % 996,5 hPa 0,0 l/m 6,5 km/h (2 Bft) O-SO 112 1,2 C 5,8 C
19.04.2012 01:56 6,8 C 67 % 996,5 hPa 0,0 l/m 4,0 km/h (1 Bft) O-SO 112 1,1 C 6,8 C
19.04.2012 02:01 6,7 C 67 % 996,5 hPa 0,0 l/m 2,9 km/h (1 Bft) O-SO 112 1,0 C 6,7 C
19.04.2012 02:06 6,6 C 67 % 996,4 hPa 0,0 l/m 5,0 km/h (1 Bft) O-SO 112 0,9 C 5,9 C
19.04.2012 02:11 6,6 C 67 % 996,4 hPa 0,0 l/m 0,0 km/h (0 Bft) SO 135 0,9 C 6,6 C
19.04.2012 02:16 6,5 C 67 % 996,5 hPa 0,0 l/m 2,5 km/h (1 Bft) O 90 0,8 C 6,5 C
19.04.2012 02:21 6,5 C 67 % 996,5 hPa 0,0 l/m 1,8 km/h (1 Bft) O 90 0,8 C 6,5 C
19.04.2012 02:26 6,5 C 67 % 996,5 hPa 0,0 l/m 1,4 km/h (1 Bft) O-SO 112 0,8 C 6,5 C
19.04.2012 02:31 6,4 C 67 % 996,4 hPa 0,0 l/m 5,8 km/h (2 Bft) O-SO 112 0,7 C 5,4 C
19.04.2012 02:36 6,3 C 67 % 996,4 hPa 0,0 l/m 5,0 km/h (1 Bft) O-NO 67 0,6 C 5,6 C
19.04.2012 02:41 6,2 C 67 % 996,3 hPa 0,0 l/m 4,0 km/h (1 Bft) O-SO 112 0,5 C 6,2 C
19.04.2012 02:46 6,2 C 67 % 996,4 hPa 0,0 l/m 4,7 km/h (1 Bft) O-NO 67 0,5 C 5,6 C
19.04.2012 02:51 6,1 C 67 % 996,4 hPa 0,0 l/m 4,0 km/h (1 Bft) O 90 0,4 C 6,1 C
19.04.2012 02:56 6,1 C 67 % 996,2 hPa 0,0 l/m 4,3 km/h (1 Bft) O-SO 112 0,4 C 6,1 C
19.04.2012 03:01 6,1 C 66 % 996,2 hPa 0,0 l/m 4,0 km/h (1 Bft) O-NO 67 0,2 C 6,1 C
19.04.2012 03:06 6,1 C 66 % 996,2 hPa 0,0 l/m 6,1 km/h (2 Bft) O-SO 112 0,2 C 5,0 C
19.04.2012 03:11 6,0 C 66 % 996,2 hPa 0,0 l/m 4,7 km/h (1 Bft) O 90 0,1 C 5,3 C
19.04.2012 03:16 5,9 C 66 % 996,2 hPa 0,0 l/m 4,7 km/h (1 Bft) O 90 0,0 C 5,2 C
19.04.2012 03:21 5,9 C 66 % 996,3 hPa 0,0 l/m 6,1 km/h (2 Bft) O 90 0,0 C 4,7 C
19.04.2012 03:26 5,9 C 66 % 996,3 hPa 0,0 l/m 5,0 km/h (1 Bft) O 90 0,0 C 5,1 C
19.04.2012 03:31 5,9 C 66 % 996,2 hPa 0,0 l/m 4,7 km/h (1 Bft) O 90 0,0 C 5,2 C
19.04.2012 03:36 5,8 C 66 % 996,4 hPa 0,0 l/m 3,6 km/h (1 Bft) O-NO 67 -0,0 C 5,8 C
19.04.2012 03:41 5,8 C 66 % 996,3 hPa 0,0 l/m 2,9 km/h (1 Bft) O 90 -0,0 C 5,8 C
19.04.2012 03:46 5,8 C 65 % 996,3 hPa 0,0 l/m 2,5 km/h (1 Bft) O 90 -0,3 C 5,8 C
19.04.2012 03:51 5,7 C 65 % 996,4 hPa 0,0 l/m 4,0 km/h (1 Bft) O 90 -0,4 C 5,7 C
19.04.2012 03:56 5,6 C 65 % 996,3 hPa 0,0 l/m 4,0 km/h (1 Bft) O 90 -0,4 C 5,6 C
19.04.2012 04:01 5,6 C 65 % 996,4 hPa 0,0 l/m 4,0 km/h (1 Bft) O-NO 67 -0,4 C 5,6 C
19.04.2012 04:06 5,5 C 65 % 996,1 hPa 0,0 l/m 7,2 km/h (2 Bft) O-NO 67 -0,5 C 3,9 C
19.04.2012 04:11 5,5 C 65 % 996,0 hPa 0,0 l/m 3,2 km/h (1 Bft) O 90 -0,5 C 5,5 C
19.04.2012 04:16 5,4 C 65 % 996,1 hPa 0,0 l/m 2,2 km/h (1 Bft) O 90 -0,6 C 5,4 C
19.04.2012 04:21 5,4 C 65 % 996,0 hPa 0,0 l/m 2,2 km/h (1 Bft) O-NO 67 -0,6 C 5,4 C
19.04.2012 04:26 5,3 C 65 % 996,1 hPa 0,0 l/m 3,6 km/h (1 Bft) O-SO 112 -0,7 C 5,3 C
19.04.2012 04:31 5,3 C 65 % 996,0 hPa 0,0 l/m 6,1 km/h (2 Bft) O-SO 112 -0,7 C 4,0 C
19.04.2012 04:36 5,2 C 65 % 995,9 hPa 0,0 l/m 5,4 km/h (1 Bft) O 90 -0,8 C 4,2 C
19.04.2012 04:41 5,1 C 65 % 996,0 hPa 0,0 l/m 6,1 km/h (2 Bft) O 90 -0,9 C 3,8 C
19.04.2012 04:46 5,1 C 65 % 995,8 hPa 0,0 l/m 4,0 km/h (1 Bft) O-NO 67 -0,9 C 5,1 C
19.04.2012 04:51 5,1 C 65 % 995,9 hPa 0,0 l/m 4,0 km/h (1 Bft) O-SO 112 -0,9 C 5,1 C
19.04.2012 04:56 5,1 C 65 % 995,9 hPa 0,0 l/m 6,1 km/h (2 Bft) O-NO 67 -0,9 C 3,8 C
19.04.2012 05:01 5,1 C 65 % 995,8 hPa 0,0 l/m 7,2 km/h (2 Bft) O 90 -0,9 C 3,5 C
19.04.2012 05:06 5,0 C 65 % 995,8 hPa 0,0 l/m 8,6 km/h (2 Bft) O-SO 112 -1,0 C 3,0 C
19.04.2012 05:11 5,0 C 65 % 995,8 hPa 0,0 l/m 6,1 km/h (2 Bft) O-NO 67 -1,0 C 3,7 C
19.04.2012 05:16 5,0 C 65 % 995,8 hPa 0,0 l/m 6,1 km/h (2 Bft) O-NO 67 -1,0 C 3,7 C
19.04.2012 05:21 5,0 C 66 % 995,8 hPa 0,0 l/m 7,2 km/h (2 Bft) O-NO 67 -0,8 C 3,4 C
19.04.2012 05:26 4,9 C 66 % 995,8 hPa 0,0 l/m 4,0 km/h (1 Bft) O-NO 67 -0,9 C 4,9 C
19.04.2012 05:31 4,9 C 66 % 995,8 hPa 0,0 l/m 9,4 km/h (2 Bft) O-SO 112 -0,9 C 2,7 C
19.04.2012 05:36 4,8 C 66 % 995,8 hPa 0,0 l/m 5,8 km/h (2 Bft) O-SO 112 -1,0 C 3,6 C
19.04.2012 05:41 4,7 C 66 % 995,7 hPa 0,0 l/m 5,0 km/h (1 Bft) O 90 -1,1 C 3,7 C
19.04.2012 05:46 4,6 C 67 % 995,6 hPa 0,0 l/m 3,6 km/h (1 Bft) O-SO 112 -1,0 C 4,6 C
19.04.2012 05:51 4,5 C 67 % 995,8 hPa 0,0 l/m 3,6 km/h (1 Bft) O-SO 112 -1,1 C 4,5 C
19.04.2012 05:56 4,4 C 67 % 995,7 hPa 0,0 l/m 5,8 km/h (2 Bft) O-SO 112 -1,2 C 3,1 C
19.04.2012 06:01 4,4 C 67 % 995,6 hPa 0,0 l/m 5,8 km/h (2 Bft) O-SO 112 -1,2 C 3,1 C
19.04.2012 06:06 4,3 C 67 % 995,6 hPa 0,0 l/m 2,2 km/h (1 Bft) SO 135 -1,3 C 4,3 C
19.04.2012 06:11 4,3 C 67 % 995,7 hPa 0,0 l/m 5,4 km/h (1 Bft) O 90 -1,3 C 3,1 C
19.04.2012 06:16 4,2 C 67 % 995,7 hPa 0,0 l/m 5,4 km/h (1 Bft) SO 135 -1,4 C 3,0 C
19.04.2012 06:21 4,1 C 68 % 995,8 hPa 0,0 l/m 5,0 km/h (1 Bft) O 90 -1,3 C 3,1 C
19.04.2012 06:26 4,1 C 68 % 995,8 hPa 0,0 l/m 3,2 km/h (1 Bft) O 90 -1,3 C 4,1 C
19.04.2012 06:31 4,1 C 68 % 995,8 hPa 0,0 l/m 5,0 km/h (1 Bft) O 90 -1,3 C 3,1 C
19.04.2012 06:36 4,1 C 69 % 995,8 hPa 0,0 l/m 8,3 km/h (2 Bft) O-NO 67 -1,1 C 2,0 C
19.04.2012 06:41 4,1 C 69 % 995,8 hPa 0,0 l/m 5,0 km/h (1 Bft) O-SO 112 -1,1 C 3,1 C
19.04.2012 06:46 4,2 C 69 % 995,9 hPa 0,0 l/m 4,3 km/h (1 Bft) O-SO 112 -1,0 C 4,2 C
19.04.2012 06:51 4,4 C 69 % 995,9 hPa 0,0 l/m 4,7 km/h (1 Bft) O-SO 112 -0,8 C 3,5 C
19.04.2012 06:56 4,6 C 69 % 996,1 hPa 0,0 l/m 4,7 km/h (1 Bft) O 90 -0,6 C 3,8 C
19.04.2012 07:01 4,8 C 68 % 996,1 hPa 0,0 l/m 3,6 km/h (1 Bft) O-SO 112 -0,6 C 4,8 C
19.04.2012 07:06 4,9 C 68 % 996,0 hPa 0,0 l/m 4,0 km/h (1 Bft) O-SO 112 -0,5 C 4,9 C
19.04.2012 07:11 4,9 C 68 % 995,9 hPa 0,0 l/m 6,1 km/h (2 Bft) O 90 -0,5 C 3,6 C
19.04.2012 07:16 4,9 C 68 % 996,1 hPa 0,0 l/m 3,6 km/h (1 Bft) O-SO 112 -0,5 C 4,9 C
19.04.2012 07:21 4,9 C 68 % 996,1 hPa 0,0 l/m 9,0 km/h (2 Bft) O-SO 112 -0,5 C 2,8 C
19.04.2012 07:26 4,9 C 68 % 996,1 hPa 0,0 l/m 5,8 km/h (2 Bft) O 90 -0,5 C 3,7 C
19.04.2012 07:31 5,0 C 68 % 996,2 hPa 0,0 l/m 5,8 km/h (2 Bft) O 90 -0,4 C 3,8 C
19.04.2012 07:36 5,2 C 69 % 996,3 hPa 0,0 l/m 6,5 km/h (2 Bft) O 90 -0,0 C 3,8 C
19.04.2012 07:41 5,3 C 69 % 996,2 hPa 0,0 l/m 4,0 km/h (1 Bft) O 90 0,1 C 5,3 C
19.04.2012 07:46 5,5 C 69 % 996,3 hPa 0,0 l/m 3,6 km/h (1 Bft) O 90 0,3 C 5,5 C
19.04.2012 07:51 5,6 C 69 % 996,3 hPa 0,0 l/m 9,0 km/h (2 Bft) O 90 0,4 C 3,6 C
19.04.2012 07:56 5,8 C 69 % 996,3 hPa 0,0 l/m 4,0 km/h (1 Bft) O 90 0,6 C 5,8 C
19.04.2012 08:01 6,0 C 68 % 996,3 hPa 0,0 l/m 4,0 km/h (1 Bft) O-SO 112 0,6 C 6,0 C
19.04.2012 08:06 6,2 C 68 % 996,1 hPa 0,0 l/m 10,1 km/h (2 Bft) SO 135 0,7 C 4,1 C
19.04.2012 08:11 6,4 C 68 % 996,4 hPa 0,0 l/m 6,1 km/h (2 Bft) O 90 0,9 C 5,3 C
19.04.2012 08:16 6,5 C 67 % 996,3 hPa 0,0 l/m 3,6 km/h (1 Bft) O 90 0,8 C 6,5 C
19.04.2012 08:21 6,8 C 67 % 996,2 hPa 0,0 l/m 5,8 km/h (2 Bft) O-SO 112 1,1 C 5,9 C
19.04.2012 08:26 6,9 C 67 % 996,3 hPa 0,0 l/m 6,1 km/h (2 Bft) O-SO 112 1,2 C 5,9 C
19.04.2012 08:31 7,2 C 67 % 996,1 hPa 0,0 l/m 10,8 km/h (2 Bft) O 90 1,5 C 5,1 C
19.04.2012 08:36 7,3 C 66 % 996,0 hPa 0,0 l/m 4,0 km/h (1 Bft) O 90 1,4 C 7,3 C
19.04.2012 08:41 7,6 C 67 % 995,9 hPa 0,0 l/m 6,5 km/h (2 Bft) O-SO 112 1,9 C 6,6 C
19.04.2012 08:46 7,8 C 66 % 995,9 hPa 0,0 l/m 4,7 km/h (1 Bft) O 90 1,9 C 7,4 C
19.04.2012 08:51 8,1 C 66 % 996,0 hPa 0,0 l/m 6,8 km/h (2 Bft) S-SO 157 2,1 C 7,1 C
19.04.2012 08:56 8,4 C 64 % 996,0 hPa 0,0 l/m 13,3 km/h (3 Bft) O-SO 112 2,0 C 6,2 C
19.04.2012 09:01 8,6 C 64 % 996,1 hPa 0,0 l/m 2,5 km/h (1 Bft) O-SO 112 2,2 C 8,6 C
19.04.2012 09:06 8,9 C 63 % 996,0 hPa 0,0 l/m 5,8 km/h (2 Bft) SO 135 2,2 C 8,3 C
19.04.2012 09:11 9,1 C 63 % 996,0 hPa 0,0 l/m 6,1 km/h (2 Bft) SO 135 2,4 C 8,4 C
19.04.2012 09:16 9,3 C 62 % 996,1 hPa 0,0 l/m 10,8 km/h (2 Bft) O-SO 112 2,4 C 7,7 C
19.04.2012 09:21 9,5 C 61 % 996,0 hPa 0,0 l/m 3,2 km/h (1 Bft) S 180 2,4 C 9,5 C
19.04.2012 09:26 9,8 C 61 % 996,0 hPa 0,0 l/m 9,4 km/h (2 Bft) O-SO 112 2,6 C 8,5 C
19.04.2012 09:31 9,9 C 60 % 996,0 hPa 0,0 l/m 0,0 km/h (0 Bft) O-SO 112 2,5 C 9,9 C
19.04.2012 09:36 10,3 C 61 % 995,9 hPa 0,0 l/m 2,2 km/h (1 Bft) SO 135 3,1 C 10,3 C
19.04.2012 09:41 10,5 C 60 % 995,9 hPa 0,0 l/m 5,0 km/h (1 Bft) SO 135 3,1 C 10,5 C
19.04.2012 09:46 10,8 C 59 % 996,0 hPa 0,0 l/m 15,5 km/h (3 Bft) O 90 3,1 C 10,8 C
19.04.2012 09:51 10,9 C 59 % 996,0 hPa 0,0 l/m 7,9 km/h (2 Bft) NO 45 3,2 C 10,9 C
19.04.2012 09:56 11,1 C 58 % 995,9 hPa 0,0 l/m 6,8 km/h (2 Bft) O-NO 67 3,2 C 11,1 C
19.04.2012 10:01 11,3 C 58 % 995,9 hPa 0,0 l/m 5,0 km/h (1 Bft) O-NO 67 3,3 C 11,3 C
19.04.2012 10:06 11,4 C 57 % 995,8 hPa 0,0 l/m 5,8 km/h (2 Bft) O 90 3,2 C 11,4 C
19.04.2012 10:11 11,6 C 57 % 995,9 hPa 0,0 l/m 2,9 km/h (1 Bft) S-SO 157 3,4 C 11,6 C
19.04.2012 10:16 11,8 C 57 % 995,9 hPa 0,0 l/m 4,7 km/h (1 Bft) SO 135 3,6 C 11,8 C
19.04.2012 10:21 12,1 C 57 % 995,8 hPa 0,0 l/m 9,7 km/h (2 Bft) O-SO 112 3,8 C 12,1 C
19.04.2012 10:26 12,2 C 56 % 995,8 hPa 0,0 l/m 8,3 km/h (2 Bft) O-NO 67 3,7 C 12,2 C
19.04.2012 10:31 12,4 C 56 % 995,9 hPa 0,0 l/m 9,0 km/h (2 Bft) O 90 3,9 C 12,4 C
19.04.2012 10:36 12,6 C 55 % 995,8 hPa 0,0 l/m 13,7 km/h (3 Bft) O 90 3,8 C 12,6 C
19.04.2012 10:41 12,7 C 55 % 995,9 hPa 0,0 l/m 7,6 km/h (2 Bft) SO 135 3,9 C 12,7 C
19.04.2012 10:46 12,9 C 55 % 995,9 hPa 0,0 l/m 13,3 km/h (3 Bft) O-SO 112 4,1 C 12,9 C
19.04.2012 10:51 13,2 C 54 % 995,9 hPa 0,0 l/m 9,4 km/h (2 Bft) SO 135 4,1 C 13,2 C
19.04.2012 10:56 13,4 C 53 % 995,9 hPa 0,0 l/m 3,6 km/h (1 Bft) S 180 4,0 C 13,4 C
19.04.2012 11:01 13,5 C 52 % 995,9 hPa 0,0 l/m 5,8 km/h (2 Bft) SO 135 3,8 C 13,5 C
19.04.2012 11:06 13,6 C 52 % 995,8 hPa 0,0 l/m 12,2 km/h (2 Bft) S 180 3,9 C 13,6 C
19.04.2012 11:11 13,8 C 52 % 995,8 hPa 0,0 l/m 23,4 km/h (4 Bft) SO 135 4,1 C 13,8 C
19.04.2012 11:16 13,9 C 51 % 995,9 hPa 0,0 l/m 10,4 km/h (2 Bft) O 90 3,9 C 13,9 C
19.04.2012 11:21 13,9 C 51 % 995,8 hPa 0,0 l/m 11,5 km/h (2 Bft) S-SO 157 3,9 C 13,9 C
19.04.2012 11:26 14,1 C 51 % 995,8 hPa 0,0 l/m 15,5 km/h (3 Bft) SO 135 4,1 C 14,1 C
19.04.2012 11:31 14,3 C 50 % 995,7 hPa 0,0 l/m 13,3 km/h (3 Bft) O 90 4,0 C 14,3 C
19.04.2012 11:36 14,4 C 50 % 995,6 hPa 0,0 l/m 7,2 km/h (2 Bft) O-SO 112 4,1 C 14,4 C
19.04.2012 11:41 14,5 C 49 % 995,7 hPa 0,0 l/m 5,8 km/h (2 Bft) SO 135 3,9 C 14,5 C
19.04.2012 11:46 14,8 C 49 % 995,7 hPa 0,0 l/m 4,3 km/h (1 Bft) SO 135 4,2 C 14,8 C
19.04.2012 11:51 14,9 C 48 % 995,5 hPa 0,0 l/m 7,2 km/h (2 Bft) O-NO 67 4,0 C 14,9 C
19.04.2012 11:56 14,9 C 48 % 995,5 hPa 0,0 l/m 9,0 km/h (2 Bft) O-SO 112 4,0 C 14,9 C
19.04.2012 12:01 15,2 C 47 % 995,5 hPa 0,0 l/m 6,5 km/h (2 Bft) O 90 4,0 C 15,2 C
19.04.2012 12:06 15,4 C 47 % 995,4 hPa 0,0 l/m 5,8 km/h (2 Bft) S-SO 157 4,1 C 15,4 C
19.04.2012 12:11 15,5 C 47 % 995,2 hPa 0,0 l/m 21,2 km/h (4 Bft) O-SO 112 4,2 C 15,5 C
19.04.2012 12:16 15,6 C 45 % 995,2 hPa 0,0 l/m 14,4 km/h (3 Bft) S-SO 157 3,7 C 15,6 C
19.04.2012 12:21 15,7 C 45 % 995,3 hPa 0,0 l/m 6,1 km/h (2 Bft) O 90 3,8 C 15,7 C
19.04.2012 12:26 15,8 C 45 % 995,3 hPa 0,0 l/m 11,9 km/h (2 Bft) O-SO 112 3,9 C 15,8 C
19.04.2012 12:31 15,4 C 45 % 995,2 hPa 0,0 l/m 7,6 km/h (2 Bft) SO 135 3,5 C 15,4 C
19.04.2012 12:36 15,3 C 45 % 995,3 hPa 0,0 l/m 4,3 km/h (1 Bft) SO 135 3,4 C 15,3 C
19.04.2012 12:41 15,3 C 45 % 995,2 hPa 0,0 l/m 8,3 km/h (2 Bft) O-SO 112 3,4 C 15,3 C
19.04.2012 12:46 15,5 C 45 % 995,3 hPa 0,0 l/m 7,9 km/h (2 Bft) SO 135 3,6 C 15,5 C
19.04.2012 12:51 15,8 C 43 % 995,1 hPa 0,0 l/m 10,4 km/h (2 Bft) O 90 3,3 C 15,8 C
19.04.2012 12:56 15,9 C 44 % 995,0 hPa 0,0 l/m 5,8 km/h (2 Bft) O-NO 67 3,7 C 15,9 C
19.04.2012 13:01 16,3 C 44 % 995,1 hPa 0,0 l/m 10,8 km/h (2 Bft) S-SO 157 4,0 C 16,3 C
19.04.2012 13:06 16,6 C 42 % 995,0 hPa 0,0 l/m 10,1 km/h (2 Bft) SO 135 3,6 C 16,6 C
19.04.2012 13:11 16,9 C 41 % 995,1 hPa 0,0 l/m 4,0 km/h (1 Bft) S 180 3,6 C 16,9 C
19.04.2012 13:16 17,2 C 40 % 995,1 hPa 0,0 l/m 3,2 km/h (1 Bft) S-SW 202 3,5 C 17,2 C
19.04.2012 13:21 17,3 C 41 % 994,9 hPa 0,0 l/m 18,4 km/h (3 Bft) SO 135 3,9 C 17,3 C
19.04.2012 13:26 17,6 C 41 % 994,9 hPa 0,0 l/m 13,7 km/h (3 Bft) SO 135 4,2 C 17,6 C
19.04.2012 13:31 17,8 C 39 % 994,9 hPa 0,0 l/m 14,4 km/h (3 Bft) SO 135 3,7 C 17,8 C
19.04.2012 13:36 17,8 C 39 % 994,9 hPa 0,0 l/m 12,2 km/h (2 Bft) S-SO 157 3,7 C 17,8 C
19.04.2012 13:41 17,9 C 39 % 994,8 hPa 0,0 l/m 7,2 km/h (2 Bft) SO 135 3,8 C 17,9 C
19.04.2012 13:46 18,2 C 39 % 994,8 hPa 0,0 l/m 15,1 km/h (3 Bft) S-SO 157 4,0 C 18,2 C
19.04.2012 13:51 18,3 C 38 % 994,9 hPa 0,0 l/m 6,1 km/h (2 Bft) O-SO 112 3,7 C 18,3 C
19.04.2012 13:56 18,1 C 38 % 995,0 hPa 0,0 l/m 5,4 km/h (1 Bft) S 180 3,6 C 18,1 C
19.04.2012 14:01 17,9 C 38 % 995,0 hPa 0,0 l/m 0,0 km/h (0 Bft) S 180 3,4 C 17,9 C
19.04.2012 14:06 17,8 C 38 % 995,0 hPa 0,0 l/m 12,2 km/h (2 Bft) S-SO 157 3,3 C 17,8 C
19.04.2012 14:11 17,9 C 39 % 994,9 hPa 0,0 l/m 9,4 km/h (2 Bft) S-SO 157 3,8 C 17,9 C
19.04.2012 14:16 17,9 C 38 % 994,9 hPa 0,0 l/m 3,6 km/h (1 Bft) S-SO 157 3,4 C 17,9 C
19.04.2012 14:21 17,8 C 38 % 994,9 hPa 0,0 l/m 8,3 km/h (2 Bft) S-SO 157 3,3 C 17,8 C
19.04.2012 14:26 17,6 C 39 % 995,0 hPa 0,0 l/m 5,8 km/h (2 Bft) SO 135 3,5 C 17,6 C
19.04.2012 14:31 17,6 C 39 % 994,8 hPa 0,0 l/m 3,2 km/h (1 Bft) S-SO 157 3,5 C 17,6 C
19.04.2012 14:36 17,8 C 39 % 994,8 hPa 0,0 l/m 3,6 km/h (1 Bft) S-SO 157 3,7 C 17,8 C
19.04.2012 14:41 17,9 C 39 % 994,8 hPa 0,0 l/m 12,2 km/h (2 Bft) O-SO 112 3,8 C 17,9 C
19.04.2012 14:46 17,8 C 39 % 994,8 hPa 0,0 l/m 2,5 km/h (1 Bft) SO 135 3,7 C 17,8 C
19.04.2012 14:51 17,6 C 39 % 994,7 hPa 0,0 l/m 6,8 km/h (2 Bft) S-SO 157 3,5 C 17,6 C
19.04.2012 14:56 17,6 C 39 % 994,7 hPa 0,0 l/m 4,0 km/h (1 Bft) O-SO 112 3,5 C 17,6 C
19.04.2012 15:01 17,4 C 39 % 994,7 hPa 0,0 l/m 6,1 km/h (2 Bft) S-SW 202 3,3 C 17,4 C
19.04.2012 15:06 17,4 C 39 % 994,7 hPa 0,0 l/m 2,5 km/h (1 Bft) O 90 3,3 C 17,4 C
19.04.2012 15:11 17,3 C 38 % 994,7 hPa 0,0 l/m 6,5 km/h (2 Bft) SO 135 2,9 C 17,3 C
19.04.2012 15:16 17,0 C 39 % 994,7 hPa 0,0 l/m 4,7 km/h (1 Bft) O-NO 67 2,9 C 17,0 C
19.04.2012 15:21 16,7 C 39 % 994,7 hPa 0,0 l/m 5,0 km/h (1 Bft) O-SO 112 2,7 C 16,7 C
19.04.2012 15:26 16,4 C 40 % 994,7 hPa 0,0 l/m 10,1 km/h (2 Bft) SO 135 2,8 C 16,4 C
19.04.2012 15:31 16,4 C 41 % 994,7 hPa 0,0 l/m 4,7 km/h (1 Bft) SO 135 3,1 C 16,4 C
19.04.2012 15:36 16,4 C 41 % 994,7 hPa 0,0 l/m 5,0 km/h (1 Bft) S-SO 157 3,1 C 16,4 C
19.04.2012 15:41 16,6 C 41 % 994,6 hPa 0,0 l/m 3,6 km/h (1 Bft) S-SO 157 3,3 C 16,6 C
19.04.2012 15:46 16,6 C 41 % 994,6 hPa 0,0 l/m 7,9 km/h (2 Bft) SO 135 3,3 C 16,6 C
19.04.2012 15:51 16,8 C 40 % 994,6 hPa 0,0 l/m 5,8 km/h (2 Bft) S-SO 157 3,1 C 16,8 C
19.04.2012 15:56 16,8 C 40 % 994,5 hPa 0,0 l/m 2,5 km/h (1 Bft) SO 135 3,1 C 16,8 C
19.04.2012 16:01 16,9 C 41 % 994,5 hPa 0,0 l/m 6,5 km/h (2 Bft) S-SO 157 3,6 C 16,9 C
19.04.2012 16:06 16,9 C 40 % 994,5 hPa 0,0 l/m 0,0 km/h (0 Bft) SO 135 3,2 C 16,9 C
19.04.2012 16:11 16,8 C 40 % 994,5 hPa 0,0 l/m 5,0 km/h (1 Bft) S-SO 157 3,1 C 16,8 C
19.04.2012 16:16 16,8 C 40 % 994,5 hPa 0,0 l/m 5,8 km/h (2 Bft) SO 135 3,1 C 16,8 C
19.04.2012 16:21 16,9 C 41 % 994,6 hPa 0,0 l/m 0,0 km/h (0 Bft) O-SO 112 3,6 C 16,9 C
19.04.2012 16:26 16,9 C 41 % 994,4 hPa 0,0 l/m 6,1 km/h (2 Bft) SO 135 3,6 C 16,9 C
19.04.2012 16:31 17,2 C 40 % 994,5 hPa 0,0 l/m 5,8 km/h (2 Bft) SO 135 3,5 C 17,2 C
19.04.2012 16:36 17,4 C 40 % 994,4 hPa 0,0 l/m 6,1 km/h (2 Bft) S-SW 202 3,7 C 17,4 C
19.04.2012 16:41 17,6 C 40 % 994,4 hPa 0,0 l/m 12,2 km/h (2 Bft) S-SO 157 3,8 C 17,6 C
19.04.2012 16:46 17,8 C 39 % 994,4 hPa 0,0 l/m 10,8 km/h (2 Bft) S 180 3,7 C 17,8 C
19.04.2012 16:51 17,8 C 39 % 994,3 hPa 0,0 l/m 10,1 km/h (2 Bft) SO 135 3,7 C 17,8 C
19.04.2012 16:56 17,8 C 38 % 994,4 hPa 0,0 l/m 0,0 km/h (0 Bft) SO 135 3,3 C 17,8 C
19.04.2012 17:01 17,8 C 39 % 994,4 hPa 0,0 l/m 5,8 km/h (2 Bft) S-SO 157 3,7 C 17,8 C
19.04.2012 17:06 17,6 C 39 % 994,2 hPa 0,0 l/m 11,5 km/h (2 Bft) S 180 3,5 C 17,6 C
19.04.2012 17:11 17,5 C 40 % 994,5 hPa 0,0 l/m 4,0 km/h (1 Bft) S-SO 157 3,8 C 17,5 C
19.04.2012 17:16 17,4 C 39 % 994,4 hPa 0,0 l/m 3,6 km/h (1 Bft) SO 135 3,3 C 17,4 C
19.04.2012 17:21 17,3 C 39 % 994,4 hPa 0,0 l/m 9,4 km/h (2 Bft) O 90 3,2 C 17,3 C
19.04.2012 17:26 17,1 C 38 % 994,6 hPa 0,0 l/m 7,2 km/h (2 Bft) O 90 2,7 C 17,1 C
19.04.2012 17:31 17,1 C 40 % 994,5 hPa 0,0 l/m 9,0 km/h (2 Bft) O-SO 112 3,4 C 17,1 C
19.04.2012 17:36 17,0 C 39 % 994,4 hPa 0,0 l/m 5,8 km/h (2 Bft) O-SO 112 2,9 C 17,0 C
19.04.2012 17:41 16,9 C 39 % 994,6 hPa 0,0 l/m 6,1 km/h (2 Bft) O-SO 112 2,9 C 16,9 C
19.04.2012 17:46 16,8 C 39 % 994,5 hPa 0,0 l/m 6,8 km/h (2 Bft) O-SO 112 2,8 C 16,8 C
19.04.2012 17:51 16,6 C 39 % 994,4 hPa 0,0 l/m 2,5 km/h (1 Bft) O-SO 112 2,6 C 16,6 C
19.04.2012 17:56 16,5 C 40 % 994,4 hPa 0,0 l/m 5,0 km/h (1 Bft) S-SO 157 2,9 C 16,5 C
19.04.2012 18:01 16,4 C 40 % 994,5 hPa 0,0 l/m 3,2 km/h (1 Bft) SO 135 2,8 C 16,4 C
19.04.2012 18:06 16,4 C 40 % 994,6 hPa 0,0 l/m 4,7 km/h (1 Bft) O 90 2,8 C 16,4 C
19.04.2012 18:11 16,4 C 40 % 994,4 hPa 0,0 l/m 4,7 km/h (1 Bft) S-SO 157 2,8 C 16,4 C
19.04.2012 18:16 16,4 C 40 % 994,4 hPa 0,0 l/m 5,8 km/h (2 Bft) O-SO 112 2,8 C 16,4 C
19.04.2012 18:21 16,4 C 40 % 994,5 hPa 0,0 l/m 3,6 km/h (1 Bft) SO 135 2,8 C 16,4 C
19.04.2012 18:26 16,3 C 41 % 994,5 hPa 0,0 l/m 4,3 km/h (1 Bft) SO 135 3,0 C 16,3 C
19.04.2012 18:31 16,2 C 42 % 994,4 hPa 0,0 l/m 2,9 km/h (1 Bft) SO 135 3,3 C 16,2 C
19.04.2012 18:36 16,1 C 42 % 994,3 hPa 0,0 l/m 9,4 km/h (2 Bft) O-SO 112 3,2 C 16,1 C
19.04.2012 18:41 16,1 C 42 % 994,5 hPa 0,0 l/m 5,0 km/h (1 Bft) O-SO 112 3,2 C 16,1 C
19.04.2012 18:46 16,1 C 43 % 994,3 hPa 0,0 l/m 4,0 km/h (1 Bft) SO 135 3,5 C 16,1 C
19.04.2012 18:51 16,1 C 43 % 994,5 hPa 0,0 l/m 3,2 km/h (1 Bft) O-SO 112 3,5 C 16,1 C
19.04.2012 18:56 16,0 C 44 % 994,3 hPa 0,0 l/m 4,3 km/h (1 Bft) O-SO 112 3,8 C 16,0 C
19.04.2012 19:01 16,1 C 43 % 994,4 hPa 0,0 l/m 2,2 km/h (1 Bft) O 90 3,5 C 16,1 C
19.04.2012 19:06 16,1 C 43 % 994,5 hPa 0,0 l/m 9,4 km/h (2 Bft) O-NO 67 3,5 C 16,1 C
19.04.2012 19:11 16,1 C 44 % 994,5 hPa 0,0 l/m 7,9 km/h (2 Bft) O-NO 67 3,8 C 16,1 C
19.04.2012 19:16 16,1 C 45 % 994,5 hPa 0,0 l/m 3,6 km/h (1 Bft) O-SO 112 4,2 C 16,1 C
19.04.2012 19:21 15,9 C 44 % 994,3 hPa 0,0 l/m 4,3 km/h (1 Bft) S-SO 157 3,7 C 15,9 C
19.04.2012 19:26 15,9 C 45 % 994,6 hPa 0,0 l/m 3,6 km/h (1 Bft) O-SO 112 4,0 C 15,9 C
19.04.2012 19:31 15,8 C 45 % 994,6 hPa 0,0 l/m 6,8 km/h (2 Bft) O 90 3,9 C 15,8 C
19.04.2012 19:36 15,6 C 45 % 994,6 hPa 0,0 l/m 6,1 km/h (2 Bft) O-SO 112 3,7 C 15,6 C
19.04.2012 19:41 15,4 C 45 % 994,5 hPa 0,0 l/m 11,2 km/h (2 Bft) O-SO 112 3,5 C 15,4 C
19.04.2012 19:46 15,3 C 46 % 994,5 hPa 0,0 l/m 3,2 km/h (1 Bft) O-SO 112 3,8 C 15,3 C
19.04.2012 19:51 15,1 C 46 % 994,7 hPa 0,0 l/m 3,6 km/h (1 Bft) SO 135 3,6 C 15,1 C
19.04.2012 19:56 14,9 C 47 % 994,6 hPa 0,0 l/m 6,1 km/h (2 Bft) O-SO 112 3,7 C 14,9 C
19.04.2012 20:01 14,9 C 47 % 994,6 hPa 0,0 l/m 6,5 km/h (2 Bft) O-SO 112 3,7 C 14,9 C
19.04.2012 20:06 14,7 C 48 % 994,9 hPa 0,0 l/m 3,6 km/h (1 Bft) SO 135 3,8 C 14,7 C
19.04.2012 20:11 14,5 C 48 % 994,7 hPa 0,0 l/m 2,2 km/h (1 Bft) SO 135 3,6 C 14,5 C
19.04.2012 20:16 14,3 C 49 % 994,7 hPa 0,0 l/m 3,2 km/h (1 Bft) SO 135 3,7 C 14,3 C
19.04.2012 20:21 14,2 C 49 % 994,7 hPa 0,0 l/m 4,0 km/h (1 Bft) O 90 3,6 C 14,2 C
19.04.2012 20:26 14,1 C 49 % 994,7 hPa 0,0 l/m 9,4 km/h (2 Bft) SO 135 3,6 C 14,1 C
19.04.2012 20:31 13,9 C 50 % 994,8 hPa 0,0 l/m 5,8 km/h (2 Bft) SO 135 3,7 C 13,9 C
19.04.2012 20:36 13,8 C 50 % 994,9 hPa 0,0 l/m 4,7 km/h (1 Bft) O-SO 112 3,6 C 13,8 C
19.04.2012 20:41 13,6 C 50 % 994,7 hPa 0,0 l/m 1,4 km/h (1 Bft) O-SO 112 3,4 C 13,6 C
19.04.2012 20:46 13,4 C 51 % 994,8 hPa 0,0 l/m 2,5 km/h (1 Bft) O-SO 112 3,5 C 13,4 C
19.04.2012 20:51 13,3 C 51 % 994,9 hPa 0,0 l/m 2,5 km/h (1 Bft) O 90 3,4 C 13,3 C
19.04.2012 20:56 13,1 C 51 % 994,9 hPa 0,0 l/m 3,2 km/h (1 Bft) O-SO 112 3,2 C 13,1 C
19.04.2012 21:01 13,0 C 52 % 995,0 hPa 0,0 l/m 0,0 km/h (0 Bft) O-SO 112 3,4 C 13,0 C
19.04.2012 21:06 12,9 C 52 % 995,0 hPa 0,0 l/m 3,2 km/h (1 Bft) O-SO 112 3,3 C 12,9 C
19.04.2012 21:11 12,9 C 52 % 994,9 hPa 0,0 l/m 0,0 km/h (0 Bft) O-SO 112 3,3 C 12,9 C
19.04.2012 21:16 12,8 C 53 % 994,8 hPa 0,0 l/m 0,0 km/h (0 Bft) O-SO 112 3,5 C 12,8 C
19.04.2012 21:21 12,6 C 53 % 994,9 hPa 0,0 l/m 1,4 km/h (1 Bft) O 90 3,3 C 12,6 C
19.04.2012 21:26 12,5 C 53 % 995,1 hPa 0,0 l/m 3,2 km/h (1 Bft) O 90 3,2 C 12,5 C
19.04.2012 21:31 12,4 C 53 % 995,1 hPa 0,0 l/m 3,6 km/h (1 Bft) O-SO 112 3,1 C 12,4 C
19.04.2012 21:36 12,4 C 54 % 995,1 hPa 0,0 l/m 3,6 km/h (1 Bft) O-SO 112 3,4 C 12,4 C
19.04.2012 21:41 12,3 C 54 % 995,1 hPa 0,0 l/m 3,6 km/h (1 Bft) O-SO 112 3,3 C 12,3 C
19.04.2012 21:46 12,2 C 54 % 995,0 hPa 0,0 l/m 5,8 km/h (2 Bft) O-SO 112 3,2 C 12,2 C
19.04.2012 21:51 12,1 C 54 % 995,0 hPa 0,0 l/m 2,9 km/h (1 Bft) O-SO 112 3,1 C 12,1 C
19.04.2012 21:56 12,0 C 55 % 995,1 hPa 0,0 l/m 4,7 km/h (1 Bft) O 90 3,2 C 12,0 C
19.04.2012 22:01 11,9 C 55 % 995,0 hPa 0,0 l/m 2,2 km/h (1 Bft) O 90 3,2 C 11,9 C
19.04.2012 22:06 11,9 C 55 % 995,2 hPa 0,0 l/m 3,6 km/h (1 Bft) O 90 3,2 C 11,9 C
19.04.2012 22:11 11,8 C 55 % 995,0 hPa 0,0 l/m 3,2 km/h (1 Bft) O-NO 67 3,1 C 11,8 C
19.04.2012 22:16 11,8 C 55 % 995,0 hPa 0,0 l/m 0,0 km/h (0 Bft) O-NO 67 3,1 C 11,8 C
19.04.2012 22:21 11,6 C 55 % 995,1 hPa 0,0 l/m 0,0 km/h (0 Bft) O 90 2,9 C 11,6 C
19.04.2012 22:26 11,6 C 56 % 995,1 hPa 0,0 l/m 2,5 km/h (1 Bft) O 90 3,1 C 11,6 C
19.04.2012 22:31 11,5 C 56 % 995,1 hPa 0,0 l/m 0,0 km/h (0 Bft) O 90 3,0 C 11,5 C
19.04.2012 22:36 11,4 C 56 % 995,2 hPa 0,0 l/m 1,8 km/h (1 Bft) O-NO 67 2,9 C 11,4 C
19.04.2012 22:41 11,3 C 56 % 994,9 hPa 0,0 l/m 2,5 km/h (1 Bft) O 90 2,8 C 11,3 C
19.04.2012 22:46 11,3 C 56 % 995,1 hPa 0,0 l/m 2,5 km/h (1 Bft) O 90 2,8 C 11,3 C
19.04.2012 22:51 11,2 C 56 % 995,1 hPa 0,0 l/m 3,2 km/h (1 Bft) O-SO 112 2,8 C 11,2 C
19.04.2012 22:56 11,1 C 57 % 995,1 hPa 0,0 l/m 2,9 km/h (1 Bft) O-SO 112 2,9 C 11,1 C
19.04.2012 23:01 11,0 C 57 % 995,2 hPa 0,0 l/m 0,0 km/h (0 Bft) O-SO 112 2,8 C 11,0 C
19.04.2012 23:06 10,9 C 57 % 995,1 hPa 0,0 l/m 1,8 km/h (1 Bft) O 90 2,7 C 10,9 C
19.04.2012 23:11 10,8 C 58 % 995,1 hPa 0,0 l/m 0,0 km/h (0 Bft) O 90 2,9 C 10,8 C
19.04.2012 23:16 10,8 C 58 % 995,0 hPa 0,0 l/m 2,5 km/h (1 Bft) O 90 2,9 C 10,8 C
19.04.2012 23:21 10,8 C 58 % 995,1 hPa 0,0 l/m 2,5 km/h (1 Bft) O 90 2,9 C 10,8 C
19.04.2012 23:26 10,7 C 58 % 995,1 hPa 0,0 l/m 2,9 km/h (1 Bft) O 90 2,8 C 10,7 C
19.04.2012 23:31 10,7 C 59 % 995,2 hPa 0,0 l/m 2,5 km/h (1 Bft) O 90 3,0 C 10,7 C
19.04.2012 23:36 10,7 C 58 % 995,0 hPa 0,0 l/m 0,0 km/h (0 Bft) O-NO 67 2,8 C 10,7 C
19.04.2012 23:41 10,8 C 58 % 995,0 hPa 0,0 l/m 4,3 km/h (1 Bft) O 90 2,9 C 10,8 C
19.04.2012 23:46 10,8 C 58 % 995,1 hPa 0,0 l/m 2,5 km/h (1 Bft) O 90 2,9 C 10,8 C
19.04.2012 23:51 10,9 C 58 % 995,1 hPa 0,0 l/m 3,2 km/h (1 Bft) O 90 3,0 C 10,9 C
19.04.2012 23:56 10,9 C 59 % 995,1 hPa 0,0 l/m 1,8 km/h (1 Bft) O 90 3,2 C 10,9 C
_ Min-Zeit 06:21 13:51 17:06 - 00:06 - - 06:16 06:36
Minimum _ 4,1 C 38 % 994,2 hPa - 0,0 km/h (0 Bft) - - -1,4 C 2,0 C
_ Max-Zeit 13:51 06:36 00:21 00:01 11:11 - - 12:11 13:51
Maximum _ 18,3 C 69 % 996,8 hPa 0,0 l/m 23,4 km/h
SO (4 Bft)
- - 4,2 C 18,3 C
Durchschnitt _ 11,4 C 55 % 995,4 hPa #0,0 l/m 5,5 km/h (1 Bft) O-SO - 2,2 C 11,1 C
(c) by David Heller